Location: Ferchesar
(52.6477°N, 12.4298°E)
Time: 20:41:22
(UTC+01:00)

Tiros 1 - Pass Details

Date: 03 December 2021
Orbit: 629 x 664 km, 48.4° (Epoch: 18 January)

Event Time Altitude Azimuth Distance (km) Brightness Sun altitude
Rises 19:22:32 0° 223° (SW) 2,919 11.1 -29.8°
Reaches altitude 10° 19:25:05 10° 212° (SSW) 2,018 10.0 -30.2°
Enters shadow 19:26:01 15° 204° (SSW) 1,723 9.5 -30.4°
